Marysville, MI

7:12 AM EDT on September 28, 2016 (GMT -0400)
Saint Clair County International

Weather History for KPHN - May, 2013

Change the Weather History Date:

Saturday, May 11, 2013

  Actual Average (KMTC) Record (KMTC)
Temperature  
Mean Temperature 47 °F -  
Max Temperature 57 °F 66 °F 86 °F (1987)
Min Temperature 37 °F 44 °F 35 °F (1949)
Degree Days  
Heating Degree Days 18    
Moisture  
Dew Point 41 °F    
Average Humidity 87    
Maximum Humidity 100    
Minimum Humidity 67    
Precipitation  
Precipitation 0.00 in - - ()
Sea Level Pressure  
Sea Level Pressure 29.82 in    
Wind  
Wind Speed 7 mph (West)    
Max Wind Speed 17 mph    
Max Gust Speed 28 mph    
Visibility 9 miles    
Events Rain    
Averages and records for this station are not official NWS values.
T = Trace of Precipitation, MM = Missing Value Source: NWS Daily Summary

Daily Weather History Graph

Daily Weather History Graph

Search for Another Location

Airport or City:

Trip Planner

Search our weather history database for the weather conditions in past years. The results will help you decide how hot, cold, wet, or windy it might be!

Date:

Astronomy

May. 11, 2013 Rise Set
Actual Time 6:11 AM EDT 8:42 PM EDT
Civil Twilight 5:39 AM EDT 9:14 PM EDT
Nautical Twilight 4:59 AM EDT 9:54 PM EDT
Astronomical Twilight 4:13 AM EDT 10:40 PM EDT
Moon 7:17 AM EDT (5/11) 10:22 PM EDT (5/11)
Length of Visible Light 15h 35m
Length of Day
14h 31m
Waxing Crescent, 3% of the Moon is Illuminated
May 11
Waxing Crescent
May 18
First Quarter
May 25
Full
May 31
Last Quarter
Jun 8
New

Hourly Weather History & Observations

Time (EDT) Temp. Windchill Dew Point Humidity Pressure Visibility Wind Dir Wind Speed Gust Speed Precip Events Conditions
12:17 AM 41.0 °F 36.4 °F 39.2 °F 93% 29.85 in 10.0 mi NW 6.9 mph - N/A   Overcast
12:37 AM 39.2 °F 35.9 °F 39.2 °F 100% 29.85 in 10.0 mi NNW 4.6 mph - N/A   Overcast
12:57 AM 41.0 °F 35.8 °F 39.2 °F 93% 29.86 in 10.0 mi NNW 8.1 mph - N/A   Overcast
1:17 AM 41.0 °F 36.4 °F 39.2 °F 93% 29.85 in 10.0 mi NNW 6.9 mph - N/A   Overcast
1:37 AM 41.0 °F 37.1 °F 39.2 °F 93% 29.85 in 10.0 mi NNW 5.8 mph - N/A   Overcast
1:57 AM 41.0 °F 35.8 °F 39.2 °F 93% 29.85 in 10.0 mi NW 8.1 mph - N/A   Overcast
2:17 AM 39.2 °F 35.0 °F 39.2 °F 100% 29.85 in 10.0 mi NW 5.8 mph - N/A   Overcast
2:37 AM 39.2 °F 33.6 °F 39.2 °F 100% 29.84 in 7.0 mi NNW 8.1 mph - N/A   Overcast
2:57 AM 39.2 °F 33.0 °F 39.2 °F 100% 29.84 in 7.0 mi NW 9.2 mph - N/A   Overcast
3:17 AM 39.2 °F 33.6 °F 39.2 °F 100% 29.85 in 7.0 mi NW 8.1 mph - N/A   Overcast
3:37 AM 39.2 °F 35.0 °F 39.2 °F 100% 29.85 in 7.0 mi NW 5.8 mph - N/A   Overcast
3:57 AM 39.2 °F 35.9 °F 39.2 °F 100% 29.86 in 5.0 mi NW 4.6 mph - N/A   Overcast
4:17 AM 39.2 °F 35.0 °F 39.2 °F 100% 29.86 in 7.0 mi NW 5.8 mph - N/A   Overcast
4:37 AM 39.2 °F 35.0 °F 39.2 °F 100% 29.86 in 7.0 mi NW 5.8 mph - N/A   Overcast
4:57 AM 41.0 °F 37.1 °F 39.2 °F 93% 29.86 in 7.0 mi NW 5.8 mph - N/A   Overcast
5:17 AM 41.0 °F 37.1 °F 39.2 °F 93% 29.86 in 7.0 mi NNW 5.8 mph - N/A   Overcast
5:37 AM 41.0 °F 36.4 °F 39.2 °F 93% 29.86 in 7.0 mi NW 6.9 mph - N/A   Overcast
5:57 AM 41.0 °F 38.0 °F 39.2 °F 93% 29.86 in 5.0 mi NW 4.6 mph - N/A   Overcast
6:17 AM 41.0 °F 39.0 °F 41.0 °F 100% 29.86 in 3.0 mi WNW 3.5 mph - N/A   Overcast
6:37 AM 41.0 °F - 41.0 °F 100% 29.86 in 2.0 mi Calm Calm - N/A   Overcast
6:57 AM 41.0 °F 39.0 °F 41.0 °F 100% 29.86 in 3.0 mi WNW 3.5 mph - N/A   Overcast
7:17 AM 41.0 °F 37.1 °F 41.0 °F 100% 29.86 in 4.0 mi WNW 5.8 mph - N/A   Overcast
7:37 AM 41.0 °F 38.0 °F 41.0 °F 100% 29.86 in 3.0 mi NW 4.6 mph - N/A   Overcast
7:57 AM 41.0 °F 38.0 °F 41.0 °F 100% 29.86 in 3.0 mi WNW 4.6 mph - N/A   Overcast
8:17 AM 41.0 °F 37.1 °F 41.0 °F 100% 29.86 in 3.0 mi West 5.8 mph - N/A   Overcast
8:37 AM 42.8 °F 38.6 °F 41.0 °F 93% 29.86 in 7.0 mi WNW 6.9 mph - N/A   Overcast
8:57 AM 42.8 °F 38.6 °F 41.0 °F 93% 29.85 in 10.0 mi NW 6.9 mph - N/A   Overcast
9:17 AM 42.8 °F 39.3 °F 41.0 °F 93% 29.85 in 10.0 mi West 5.8 mph - N/A   Overcast
9:37 AM 42.8 °F 39.3 °F 41.0 °F 93% 29.85 in 10.0 mi West 5.8 mph - N/A   Overcast
9:57 AM 44.6 °F 40.7 °F 41.0 °F 87% 29.85 in 10.0 mi WNW 6.9 mph - N/A   Overcast
10:17 AM 44.6 °F 41.4 °F 41.0 °F 87% 29.84 in 10.0 mi WNW 5.8 mph - N/A   Overcast
10:37 AM 44.6 °F 42.2 °F 42.8 °F 93% 29.84 in 10.0 mi WNW 4.6 mph - N/A   Overcast
10:57 AM 46.4 °F 43.5 °F 42.8 °F 87% 29.84 in 10.0 mi WNW 5.8 mph - N/A   Overcast
11:17 AM 46.4 °F 42.9 °F 42.8 °F 87% 29.84 in 10.0 mi West 6.9 mph - N/A   Overcast
11:37 AM 46.4 °F 42.9 °F 42.8 °F 87% 29.84 in 10.0 mi WNW 6.9 mph - N/A   Overcast
11:57 AM 46.4 °F 42.9 °F 42.8 °F 87% 29.84 in 10.0 mi West 6.9 mph - N/A   Overcast
12:17 PM 48.2 °F - 42.8 °F 82% 29.84 in 10.0 mi West 4.6 mph - N/A   Overcast
12:37 PM 48.2 °F - 42.8 °F 82% 29.84 in 10.0 mi WSW 6.9 mph - N/A   Overcast
12:57 PM 50.0 °F - 44.6 °F 82% 29.82 in 10.0 mi SW 4.6 mph - N/A   Overcast
1:17 PM 50.0 °F - 44.6 °F 82% 29.81 in 10.0 mi SW 6.9 mph - N/A   Overcast
1:37 PM 50.0 °F - 44.6 °F 82% 29.80 in 10.0 mi Calm Calm - N/A   Overcast
1:57 PM 51.8 °F - 44.6 °F 76% 29.79 in 10.0 mi Calm Calm - N/A   Overcast
2:17 PM 51.8 °F - 44.6 °F 76% 29.79 in 10.0 mi SW 5.8 mph - N/A   Overcast
2:37 PM 51.8 °F - 44.6 °F 76% 29.79 in 10.0 mi SSW 5.8 mph - N/A   Overcast
2:57 PM 51.8 °F - 44.6 °F 76% 29.78 in 10.0 mi SW 6.9 mph - N/A   Overcast
3:17 PM 53.6 °F - 44.6 °F 72% 29.78 in 10.0 mi SW 8.1 mph - N/A   Mostly Cloudy
3:37 PM 55.4 °F - 46.4 °F 72% 29.77 in 10.0 mi South 10.4 mph - N/A   Overcast
3:57 PM 55.4 °F - 46.4 °F 72% 29.76 in 10.0 mi South 13.8 mph - N/A   Mostly Cloudy
4:17 PM 55.4 °F - 44.6 °F 67% 29.75 in 10.0 mi South 10.4 mph - N/A   Mostly Cloudy
4:37 PM 55.4 °F - 44.6 °F 67% 29.74 in 10.0 mi South 12.7 mph 19.6 mph N/A   Mostly Cloudy
4:57 PM 53.6 °F - 44.6 °F 72% 29.74 in 10.0 mi South 10.4 mph 20.7 mph N/A   Overcast
5:17 PM 55.4 °F - 44.6 °F 67% 29.73 in 10.0 mi South 15.0 mph 20.7 mph N/A   Overcast
5:37 PM 55.4 °F - 44.6 °F 67% 29.73 in 10.0 mi South 16.1 mph 23.0 mph N/A   Overcast
5:57 PM 57.2 °F - 46.4 °F 67% 29.72 in 10.0 mi South 17.3 mph 21.9 mph N/A   Mostly Cloudy
6:17 PM 55.4 °F - 46.4 °F 72% 29.72 in 10.0 mi SSW 13.8 mph 17.3 mph N/A   Scattered Clouds
6:37 PM 55.4 °F - 46.4 °F 72% 29.72 in 10.0 mi SSW 13.8 mph - N/A   Mostly Cloudy
6:57 PM 53.6 °F - 46.4 °F 77% 29.73 in 10.0 mi SW 10.4 mph 17.3 mph N/A   Drizzle
7:17 PM 50.0 °F - 48.2 °F 94% 29.74 in 4.0 mi SW 5.8 mph - N/A Rain Light Rain
7:37 PM 50.0 °F - 48.2 °F 94% 29.74 in 7.0 mi SSW 4.6 mph - N/A Rain Light Rain
7:57 PM 50.0 °F - 48.2 °F 94% 29.74 in 10.0 mi WSW 12.7 mph 20.7 mph N/A   Overcast
8:17 PM 44.6 °F 37.4 °F 42.8 °F 93% 29.78 in 10.0 mi NW 16.1 mph 26.5 mph N/A   Light Drizzle
8:37 PM 44.6 °F 38.8 °F 41.0 °F 87% 29.80 in 10.0 mi WNW 11.5 mph 18.4 mph N/A   Overcast
8:57 PM 42.8 °F 36.2 °F 39.2 °F 87% 29.82 in 10.0 mi WNW 12.7 mph 24.2 mph N/A   Overcast
9:17 PM 41.0 °F 33.9 °F 37.4 °F 87% 29.84 in 10.0 mi NW 12.7 mph 27.6 mph N/A   Overcast
9:37 PM 41.0 °F 34.7 °F 35.6 °F 81% 29.84 in 10.0 mi NW 10.4 mph 18.4 mph N/A   Overcast
9:57 PM 39.2 °F 32.0 °F 35.6 °F 87% 29.84 in 10.0 mi WNW 11.5 mph 19.6 mph N/A   Mostly Cloudy
10:17 PM 39.2 °F 32.0 °F 33.8 °F 81% 29.85 in 10.0 mi WNW 11.5 mph 18.4 mph N/A   Scattered Clouds
10:37 PM 39.2 °F 35.0 °F 33.8 °F 81% 29.86 in 10.0 mi WNW 5.8 mph - N/A   Clear
10:57 PM 37.4 °F 32.8 °F 33.8 °F 87% 29.86 in 10.0 mi West 5.8 mph - N/A   Clear
11:17 PM 37.4 °F 33.8 °F 33.8 °F 87% 29.86 in 10.0 mi West 4.6 mph - N/A   Clear
11:37 PM 37.4 °F 34.9 °F 33.8 °F 87% 29.86 in 10.0 mi West 3.5 mph - N/A   Clear
11:57 PM 37.4 °F 33.8 °F 33.8 °F 87% 29.87 in 10.0 mi WSW 4.6 mph - N/A   Clear